Location: Sternwarte-Kraichtal
(49.1689°N, 8.6996°E)
Time: 12:05:23
(UTC+02:00)

BlueWalker 3 - Pass Details

Date: 29 February 2024
Orbit: 485 x 495 km, 53.2° (Epoch: 22 April)

Event Time Altitude Azimuth Distance (km) Brightness Sun altitude
Rises 19:08:49 0° 291° (WNW) 2,566 7.0 -10.8°
Reaches altitude 10° 19:11:02 10° 296° (WNW) 1,680 5.7 -11.2°
Maximum altitude 19:14:46 57° 16° (NNE) 577 2.1 -11.8°
Enters shadow 19:17:14 20° 90° (E) 1,186 3.2 -12.2°
